Location: Altleiningen
(49.5078°N, 8.0741°E)
Time: 04:40:51
(UTC+00:00)

Cosmos 1844 - Pass Details

Date: 03 March 2021
Orbit: 822 x 868 km, 70.9° (Epoch: 11 April)

Event Time Altitude Azimuth Distance (km) Brightness Sun altitude
Rises 18:33:09 0° 331° (NNW) 3,462 7.4 -13.6°
Reaches altitude 10° 18:35:38 10° 333° (NNW) 2,518 6.6 -14.0°
Maximum altitude 18:41:27 79° 60° (ENE) 882 3.7 -15.0°
Enters shadow 18:47:07 10° 147° (SSE) 2,458 5.7 -15.9°
